Home   Weather   USA   Bullhead City   Past weeks
Flag for USA

Past Weather in Bullhead City, Arizona, USA — Yesterday and Last 2 Weeks

Currently: 63 °F. Passing clouds. (Weather station: Laughlin/Bullhead International Airport, USA). See more current weather

Past Weather in Bullhead City — Graph

°F

Bullhead City Temperature Yesterday

Maximum temperature yesterday: 61 °F (at 3:54 pm)
Minimum temperature yesterday: 45 °F (at 7:48 am)
Average temperature yesterday: 54 °F

High & Low Weather Summary for the Past Weeks

 TemperatureHumidityPressure
High70 °F (Nov 23, 2:58 pm)88% (Dec 5, 3:55 am)30.37 "Hg (Dec 5, 3:55 am)
Low39 °F (Nov 26, 6:55 am)11% (Nov 23, 2:58 pm)29.66 "Hg (Nov 28, 5:55 pm)
Average56 °F38%30.05 "Hg
* Reported Nov 22 5:55 pm — Dec 7 5:47 pm, Bullhead City. Weather by CustomWeather, © 2022

Note: Actual official high and low records may vary slightly from our data, if they occured in-between our weather recording intervals... More about our weather records

Bullhead City Weather History for the Previous 24 Hours

Scroll right to see more
 ConditionsComfort  
Time TempWeatherWind HumidityBarometerVisibility
5:47 pm
Wed, Dec 7
63 °FPassing clouds.7 mph22%30.12 "Hg20 mi
3:48 pm64 °FScattered clouds.7 mph22%30.10 "Hg20 mi
2:55 pm64 °FPassing clouds.14 mph22%30.09 "Hg10 mi
1:48 pm64 °FScattered clouds.9 mph26%30.10 "Hg20 mi
12:49 pm63 °FScattered clouds.7 mph37%30.11 "Hg20 mi
11:47 am59 °FPassing clouds.No wind36%30.13 "Hg10 mi
10:47 am57 °FScattered clouds.No wind41%30.14 "Hg20 mi
9:51 am54 °FScattered clouds.No wind47%30.13 "Hg20 mi
8:50 am50 °FPartly sunny.No wind54%30.11 "Hg10 mi
7:47 am48 °FPartly sunny.No wind58%30.09 "Hg10 mi
7:35 am50 °FBroken clouds.No wind47%30.08 "Hg10 mi
6:55 am50 °FPassing clouds.No wind47%30.07 "Hg10 mi
6:35 am48 °FPassing clouds.No wind54%30.05 "Hg10 mi
6:15 am48 °FPassing clouds.No wind50%30.05 "Hg10 mi
5:50 am50 °FPassing clouds.No wind50%30.04 "Hg10 mi
5:35 am50 °FPassing clouds.No wind47%30.04 "Hg10 mi
4:55 am50 °FClear.No wind47%30.03 "Hg10 mi
4:15 am50 °FClear.No wind47%30.03 "Hg10 mi
3:55 am52 °FClear.No wind44%30.02 "Hg10 mi
3:15 am52 °FClear.No wind47%30.02 "Hg10 mi
2:55 am52 °FClear.No wind44%30.02 "Hg10 mi
2:35 am52 °FClear.No wind41%30.02 "Hg10 mi
2:15 am52 °FClear.3 mph44%30.01 "Hg10 mi
1:55 am52 °FClear.3 mph44%30.01 "Hg10 mi
1:35 am52 °FClear.3 mph44%30.01 "Hg10 mi
1:15 am52 °FClear.No wind47%30.01 "Hg10 mi
12:55 am54 °FClear.No wind47%30.01 "Hg10 mi
12:35 am54 °FClear.No wind47%30.02 "Hg10 mi
12:15 am54 °FClear.No wind44%30.02 "Hg10 mi
11:55 pm
Tue, Dec 6
54 °FClear.No wind44%30.02 "Hg10 mi
11:35 pm55 °FClear.3 mph38%30.02 "Hg10 mi
11:15 pm54 °FClear.No wind44%30.01 "Hg10 mi
10:55 pm55 °FClear.No wind44%30.01 "Hg10 mi
10:35 pm55 °FClear.No wind47%30.01 "Hg10 mi
9:55 pm55 °FClear.No wind41%30.00 "Hg10 mi
9:35 pm55 °FClear.5 mph44%29.99 "Hg10 mi
8:55 pm55 °FClear.No wind44%30.00 "Hg10 mi
8:35 pm55 °FClear.3 mph44%29.98 "Hg10 mi
7:55 pm57 °FPassing clouds.No wind41%29.99 "Hg10 mi
7:35 pm57 °FPassing clouds.No wind41%29.98 "Hg10 mi
7:15 pm57 °FClear.No wind41%29.98 "Hg10 mi
Weather by CustomWeather, © 2022

See weather overview